Weather History for El Dorado, AR

Change the Weather History Date:

Tuesday, February 12, 2013

  Actual Average Record
Temperature  
Mean Temperature 46 °F 47 °F  
Max Temperature 48 °F 58 °F 81 °F (1962)
Min Temperature 44 °F 36 °F 9 °F (1988)
Degree Days  
Heating Degree Days 19 18  
Month to date heating degree days 174 230  
Since 1 July heating degree days 1729 1973  
Cooling Degree Days 0 0  
Month to date cooling degree days 0 0  
Year to date cooling degree days 6 2  
Moisture  
Dew Point 43 °F    
Average Humidity 91    
Maximum Humidity 92    
Minimum Humidity 89    
Precipitation  
Precipitation 0.43 in 0.18 in 2.97 in (1992)
Month to date precipitation 2.02 1.99  
Year to date precipitation 5.68 6.29  
Snow  
Snow 0.00 in - - ()
Month to date snowfall 0.0  
Since 1 July snowfall 0.1  
Snow Depth 0.00 in    
Sea Level Pressure  
Sea Level Pressure 29.93 in    
Wind  
Wind Speed 7 mph (NE)    
Max Wind Speed 18 mph    
Max Gust Speed 24 mph    
Visibility 7 miles    
Events Rain , Thunderstorm    
T = Trace of Precipitation, MM = Missing Value Source: NWS Daily Summary

Daily Weather History Graph

Daily Weather History Graph

Search for Another Location

Airport:

Trip Planner

Search our weather history database for the weather conditions in past years. The results will help you decide how hot, cold, wet, or windy it might be!

Date:

Astronomy

Feb. 12, 2013 Rise Set
Actual Time 6:57 AM CST 5:53 PM CST
Civil Twilight 6:32 AM CST 6:19 PM CST
Nautical Twilight 6:03 AM CST 6:48 PM CST
Astronomical Twilight 5:34 AM CST 7:17 PM CST
Moon 8:06 AM CST (2/12) 8:42 PM CST (2/12)
Length of Visible Light 11h 47m
Length of Day
10h 56m
Waxing Crescent, 7% of the Moon is Illuminated
Feb 12
Waxing Crescent
Feb 17
First Quarter
Feb 25
Full
Mar 4
Last Quarter
Mar 11
New

Hourly Weather History & Observations

Time (CST) Temp. Windchill Dew Point Humidity Pressure Visibility Wind Dir Wind Speed Gust Speed Precip Events Conditions
12:53 AM 46.9 °F - 46.0 °F 97% 30.14 in 10.0 mi NW 4.6 mph - 0.00 in Rain Light Rain
1:53 AM 46.9 °F - 44.1 °F 90% 30.09 in 10.0 mi North 6.9 mph - 0.01 in   Mostly Cloudy
2:53 AM 45.0 °F 41.8 °F 43.0 °F 93% 30.05 in 10.0 mi ENE 5.8 mph - N/A   Clear
3:53 AM 44.1 °F 41.5 °F 41.0 °F 89% 30.03 in 10.0 mi East 4.6 mph - N/A   Partly Cloudy
4:53 AM 45.0 °F 41.8 °F 41.0 °F 86% 30.03 in 10.0 mi NNE 5.8 mph - N/A   Clear
5:53 AM 45.0 °F 40.6 °F 42.1 °F 90% 30.00 in 10.0 mi NE 8.1 mph - N/A   Partly Cloudy
6:53 AM 45.0 °F 41.8 °F 41.0 °F 86% 30.00 in 10.0 mi NNE 5.8 mph - N/A   Mostly Cloudy
7:53 AM 46.0 °F 41.9 °F 41.0 °F 83% 29.98 in 10.0 mi NE 8.1 mph - 0.01 in Rain Light Rain
8:04 AM 46.4 °F - 41.0 °F 81% 30.01 in 8.0 mi Calm Calm - 0.02 in Rain , Thunderstorm Rain
8:19 AM 44.6 °F 42.2 °F 42.8 °F 93% 30.03 in 8.0 mi WNW 4.6 mph - 0.03 in Rain Rain
8:28 AM 44.6 °F 40.7 °F 42.8 °F 93% 30.00 in 6.0 mi NNE 6.9 mph - 0.05 in Rain , Thunderstorm Rain
8:43 AM 44.6 °F 43.1 °F 41.0 °F 87% 30.03 in 6.0 mi Variable 3.5 mph - 0.08 in Rain Light Rain
8:50 AM 44.6 °F 40.2 °F 42.8 °F 93% 30.08 in 8.0 mi SSW 8.1 mph - 0.08 in Rain , Thunderstorm Light Thunderstorms and Rain
8:53 AM 45.0 °F - 42.1 °F 90% 30.04 in 6.0 mi Calm Calm - 0.10 in Rain , Thunderstorm Light Thunderstorms and Rain
9:07 AM 44.6 °F 40.2 °F 42.8 °F 93% 30.01 in 4.0 mi ENE 8.1 mph 17.3 mph 0.06 in Rain Light Rain
9:46 AM 44.6 °F 43.1 °F 41.0 °F 87% 30.03 in 10.0 mi Variable 3.5 mph - 0.07 in Rain , Thunderstorm Light Thunderstorms and Rain
9:53 AM 45.0 °F 40.1 °F 42.1 °F 90% 29.99 in 9.0 mi ENE 9.2 mph - 0.08 in Rain , Thunderstorm Light Thunderstorms and Rain
10:01 AM 44.6 °F 39.2 °F 42.8 °F 93% 29.98 in 5.0 mi ENE 10.4 mph - 0.03 in Rain Heavy Rain
10:53 AM 45.0 °F 39.3 °F 42.1 °F 90% 29.97 in 10.0 mi NNE 11.5 mph - 0.04 in Rain Light Rain
11:53 AM 45.0 °F 37.9 °F 42.1 °F 90% 29.91 in 4.0 mi NE 16.1 mph - 0.05 in Rain Rain
12:24 PM 44.6 °F 38.4 °F 42.8 °F 93% 29.91 in 9.0 mi NE 12.7 mph 23.0 mph 0.03 in Rain Light Rain
12:53 PM 45.0 °F 37.9 °F 41.0 °F 86% 29.91 in 2.0 mi NE 16.1 mph 24.2 mph 0.07 in Rain Heavy Rain
1:01 PM 44.6 °F 42.2 °F 42.8 °F 93% 29.93 in 1.8 mi Variable 4.6 mph - 0.03 in Rain Rain
1:09 PM 44.6 °F 37.4 °F 42.8 °F 93% 29.91 in 2.5 mi NE 16.1 mph 19.6 mph 0.04 in Rain Rain
1:13 PM 46.4 °F 39.8 °F 42.8 °F 87% 29.89 in 4.0 mi NE 16.1 mph - 0.04 in Rain Light Rain
1:42 PM 44.6 °F 38.1 °F 42.8 °F 93% 29.87 in 10.0 mi ENE 13.8 mph - 0.04 in   Overcast
1:53 PM 45.0 °F 39.7 °F 42.1 °F 90% 29.88 in 10.0 mi ENE 10.4 mph 20.7 mph 0.04 in   Overcast
2:53 PM 45.0 °F 39.7 °F 43.0 °F 93% 29.87 in 6.0 mi NE 10.4 mph - 0.01 in   Overcast
3:25 PM 44.6 °F 40.2 °F 42.8 °F 93% 29.86 in 9.0 mi ENE 8.1 mph - N/A   Overcast
3:53 PM 45.0 °F 40.1 °F 43.0 °F 93% 29.85 in 7.0 mi ENE 9.2 mph - N/A   Overcast
4:46 PM 44.6 °F 40.2 °F 42.8 °F 93% 29.85 in 2.5 mi NE 8.1 mph - N/A   Overcast
4:53 PM 45.0 °F 41.2 °F 43.0 °F 93% 29.85 in 2.0 mi NE 6.9 mph - N/A   Overcast
5:29 PM 44.6 °F 40.2 °F 42.8 °F 93% 29.84 in 3.0 mi ENE 8.1 mph - N/A   Overcast
5:37 PM 44.6 °F 41.4 °F 42.8 °F 93% 29.84 in 3.0 mi East 5.8 mph - N/A   Overcast
5:48 PM 44.6 °F 42.2 °F 42.8 °F 93% 29.84 in 4.0 mi ENE 4.6 mph - N/A   Overcast
5:53 PM 44.1 °F 40.8 °F 43.0 °F 96% 29.84 in 5.0 mi ENE 5.8 mph - N/A   Overcast
6:24 PM 44.6 °F 40.7 °F 42.8 °F 93% 29.85 in 6.0 mi ENE 6.9 mph - N/A   Overcast
6:33 PM 44.6 °F 42.2 °F 42.8 °F 93% 29.86 in 5.0 mi ENE 4.6 mph - N/A   Overcast
6:53 PM 44.1 °F 42.5 °F 43.0 °F 96% 29.86 in 4.0 mi ENE 3.5 mph - 0.00 in Rain Light Rain
7:53 PM 44.1 °F - 43.0 °F 96% 29.86 in 3.0 mi Calm Calm - 0.01 in   Overcast
8:23 PM 44.6 °F 43.1 °F 42.8 °F 93% 29.88 in 5.0 mi North 3.5 mph - N/A   Overcast
8:43 PM 44.6 °F - 42.8 °F 93% 29.88 in 8.0 mi Calm Calm - N/A   Overcast
8:53 PM 44.1 °F - 42.1 °F 93% 29.89 in 6.0 mi Calm Calm - N/A   Overcast
9:53 PM 44.1 °F 42.5 °F 43.0 °F 96% 29.89 in 7.0 mi SW 3.5 mph - 0.00 in   Overcast
10:08 PM 44.6 °F - 42.8 °F 93% 29.89 in 7.0 mi Calm Calm - 0.01 in   Overcast
10:16 PM 44.6 °F - 42.8 °F 93% 29.89 in 7.0 mi Calm Calm - 0.01 in   Overcast
10:53 PM 44.1 °F - 43.0 °F 96% 29.89 in 10.0 mi Calm Calm - 0.01 in   Overcast
11:39 PM 44.6 °F 43.1 °F 42.8 °F 93% 29.88 in 10.0 mi WNW 3.5 mph - N/A   Overcast
11:53 PM 44.1 °F 42.5 °F 43.0 °F 96% 29.88 in 10.0 mi West 3.5 mph - N/A   Overcast